GONETS-M 19 (46488 NORAD) Tracking and Keplerian Element Data

This shows tracking and keplerian element data for the satellite.

Feedback or suggestion? Click here.




ElementValue
Catalog46488
NameGONETS-M 19
Epoch Orbit398
Epoch Day304.49320377
Epoch Year2020
RAAN186.2196
Inclination82.5006
Eccentricity0.0013217
Argument of Perigee209.7779
Mean Anonmoly150.0808
Mean Motion12.42870293
Decay Rate1E-07
L11 46488U 20068C 20304.49320377 .00000010 00000-0 00000+0 0 9990
L22 46488 82.5006 186.2196 0013217 209.7779 150.0808 12.42870293 3981

Live tracking and technical data element details for GONETS-M 19 (NORAD 46488). GONETS-M 19 can be tracked NOW for your location showing map with azimuth and elevation plus other details from your city location.

Track the satellite on the map from your city or location and see movement details for azimuth, elevation, latitude, longitude, range, height, and movement on the map or in text.







IsCatalogInMostPopularTable: catalog: 46488, numindb: 4
Update: records affected: 1



GetName: 46488 GONETS-M 19

Hit Count: updated at: Sat, 31 Oct 2020 11:23:42 GMT